Location: Newton
(53.5759°N, 113.4216°W)
Time: 07:10:42
(UTC+00:00)

ISS - Visible Passes

Search period start: 06 July 2022 00:00
Search period end: 16 July 2022 00:00
Orbit: 414 x 420 km, 51.6° (Epoch: 06 July)

Date Brightness Start Highest point End Pass type
(mag) Time Alt. Az. Time Alt. Az. Time Alt. Az.
06 Jul -2.6 08:18:59 24° SSE 08:19:31 25° SSE 08:22:19 10° E visible
06 Jul -3.6 09:52:35 10° WSW 09:55:53 57° S 09:59:13 10° E visible
07 Jul -2.0 07:32:06 17° SE 07:32:06 17° SE 07:33:51 10° E visible
07 Jul -3.5 09:04:58 14° WSW 09:07:43 49° SSE 09:10:59 10° E visible
08 Jul -3.3 08:17:59 24° SW 08:19:32 40° SSE 08:22:43 10° E visible
08 Jul -3.8 09:52:45 10° W 09:56:04 63° S 09:59:25 10° E visible
09 Jul -3.0 07:30:51 29° S 07:31:23 31° SSE 07:34:25 10° E visible
09 Jul -3.8 09:04:31 10° WSW 09:07:51 62° S 09:11:11 10° E visible
10 Jul -2.6 06:43:26 24° SE 06:43:26 24° SE 06:46:01 10° E visible
10 Jul -3.7 08:16:19 10° WSW 08:19:37 56° S 08:22:55 10° E visible
10 Jul -3.7 09:52:53 10° W 09:56:12 56° S 09:59:30 10° ESE visible
11 Jul -2.2 05:55:14 18° SE 05:55:14 18° SE 05:57:28 10° ESE visible
11 Jul -3.6 07:28:08 10° WSW 07:31:23 48° SSE 07:34:39 10° E visible
11 Jul -3.8 09:04:37 10° W 09:07:58 61° S 09:11:18 10° ESE visible
12 Jul -1.9 05:05:32 10° SSE 05:07:04 13° SE 05:08:36 10° ESE visible
12 Jul -3.3 06:40:01 10° SW 06:43:10 39° SSE 06:46:20 10° E visible
12 Jul -3.8 08:16:22 10° W 08:19:41 63° S 08:23:02 10° E visible
12 Jul -3.3 09:53:03 10° W 09:56:14 39° SSW 09:59:24 10° SE visible
13 Jul -3.0 05:51:59 10° SW 05:54:58 30° SSE 05:57:58 10° E visible
13 Jul -3.8 07:28:05 10° WSW 07:31:25 61° S 07:34:45 10° E visible
13 Jul -3.6 09:04:44 10° W 09:08:00 48° SSW 09:11:16 10° ESE visible
14 Jul -2.6 05:04:05 10° SSW 05:06:47 23° SSE 05:09:31 10° E visible
14 Jul -3.7 06:39:51 10° WSW 06:43:08 55° S 06:46:27 10° E visible
14 Jul -3.8 08:16:25 10° W 08:19:43 56° S 08:23:02 10° ESE visible
14 Jul -2.7 09:53:18 10° W 09:56:06 24° SSW 09:58:54 10° SSE visible
15 Jul -3.6 05:51:38 10° WSW 05:54:52 47° SSE 05:58:07 10° E visible
15 Jul -3.8 07:28:06 10° W 07:31:26 62° S 07:34:46 10° ESE visible
15 Jul -3.1 09:04:52 10° W 09:07:54 32° SSW 09:10:57 10° SE visible
